Terminal Aerodrome Forecast
Issued by NWS Columbia, SC

Home | Current Version | Previous Version | Text Only | Print | Product List | Glossary On
Versions: 1 2 3 4 5 6 7 8 9 10 11 12 13 14 15 16 17 18 19 20 21 22 23 24 25 26 27 28 29 30 31 32 33 34 35 36 37 38 39 40 41 42 43 44 45 46 47 48 49 50
000
FTUS42 KCAE 160532 CCA
TAFAGS
TAF COR
KAGS 160532Z 1606/1706 VRB03KT 2SM BR SCT002 SCT250
      TEMPO 1606/1608 3/4SM BR VV003
     FM160800 VRB03KT 1/2SM FG VV002
      TEMPO 1608/1612 1/4SM FZFG
     FM161400 VRB03KT P6SM SCT250=

USA.gov is the U.S. government's official web portal to all federal, state and local government web resources and services.